FIN26J EFHK-EDDH

Flight info

Callsign FIN26J
Flight time N/A
Altitude 36000
Route NUNTO Y369 REKDO DCT KOSKA DCT GIMRU T503 MICOS/N0415F280 N850 BOGMU BOGMU3D
Aircraft A319/M-SDE1E2E3FGIJ1M1RWXYZ/LB1

Departure

Time N/A
Airport Helsinki Vantaa Airport (EFHK)

Arrival

Time 2026-05-01 07:59
Airport Hamburg Helmut Schmidt Airport (EDDH)
Time Latitude Longitude Altitude Speed Heading
2026-05-01 07:23 55.54680 13.02085 36428 ft 442 kts 226°
2026-05-01 07:24 55.48194 12.90500 36425 ft 442 kts 226°
2026-05-01 07:24 55.43871 12.82788 36421 ft 442 kts 226°
2026-05-01 07:25 55.39575 12.75157 36421 ft 441 kts 226°
2026-05-01 07:25 55.35256 12.67510 36431 ft 441 kts 226°
2026-05-01 07:26 55.30929 12.59869 36428 ft 441 kts 226°
2026-05-01 07:26 55.27057 12.53036 36420 ft 441 kts 226°
2026-05-01 07:27 55.22726 12.45439 36424 ft 440 kts 225°
2026-05-01 07:27 55.18388 12.37863 36423 ft 440 kts 225°
2026-05-01 07:28 55.14051 12.30294 36431 ft 440 kts 225°
2026-05-01 07:28 55.09716 12.22739 36425 ft 440 kts 225°
2026-05-01 07:29 55.05363 12.15205 36426 ft 441 kts 225°
2026-05-01 07:29 55.01005 12.07689 36420 ft 441 kts 225°
2026-05-01 07:30 54.96651 12.00189 36412 ft 441 kts 225°
2026-05-01 07:30 54.94467 11.96431 36165 ft 441 kts 225°
2026-05-01 07:30 54.92288 11.92693 35839 ft 438 kts 225°
2026-05-01 07:30 54.90123 11.88984 35299 ft 436 kts 224°
2026-05-01 07:31 54.87966 11.85298 34737 ft 435 kts 224°
2026-05-01 07:31 54.81528 11.74325 32985 ft 429 kts 224°
2026-05-01 07:32 54.77284 11.67116 31867 ft 425 kts 224°
2026-05-01 07:32 54.75177 11.63553 31317 ft 423 kts 224°
2026-05-01 07:33 54.71007 11.56535 30207 ft 419 kts 224°
2026-05-01 07:33 54.68926 11.53037 29660 ft 415 kts 223°
2026-05-01 07:33 54.64826 11.46142 28610 ft 408 kts 223°
2026-05-01 07:34 54.62801 11.42740 28106 ft 405 kts 223°
2026-05-01 07:34 54.58785 11.36007 27111 ft 400 kts 223°
2026-05-01 07:34 54.56793 11.32683 26639 ft 397 kts 222°
2026-05-01 07:35 54.54653 11.29712 26175 ft 394 kts 213°
2026-05-01 07:35 54.52421 11.27017 25739 ft 391 kts 214°
2026-05-01 07:35 54.50205 11.24327 25297 ft 389 kts 214°
2026-05-01 07:35 54.48004 11.21646 24860 ft 386 kts 214°
2026-05-01 07:36 54.45818 11.18982 24419 ft 384 kts 214°
2026-05-01 07:36 54.43644 11.16336 23962 ft 382 kts 214°
2026-05-01 07:36 54.41482 11.13710 23471 ft 379 kts 214°
2026-05-01 07:36 54.39338 11.11115 23025 ft 375 kts 214°
2026-05-01 07:37 54.35105 11.06013 22134 ft 369 kts 214°
2026-05-01 07:37 54.33012 11.03493 21687 ft 366 kts 214°
2026-05-01 07:37 54.30991 11.00856 21220 ft 365 kts 221°
2026-05-01 07:38 54.29273 10.97682 20768 ft 364 kts 231°
2026-05-01 07:38 54.27742 10.94241 20315 ft 362 kts 232°
2026-05-01 07:38 54.24683 10.87445 19417 ft 359 kts 231°
2026-05-01 07:39 54.23152 10.84068 18960 ft 359 kts 231°
2026-05-01 07:39 54.21623 10.80702 18457 ft 358 kts 231°
2026-05-01 07:39 54.18584 10.74015 17567 ft 354 kts 231°
2026-05-01 07:40 54.17083 10.70703 17139 ft 352 kts 231°
2026-05-01 07:40 54.15593 10.67416 16714 ft 350 kts 231°
2026-05-01 07:40 54.14104 10.64143 16277 ft 348 kts 230°
2026-05-01 07:40 54.12619 10.60890 15856 ft 347 kts 230°
2026-05-01 07:41 54.11139 10.57654 15433 ft 346 kts 230°
2026-05-01 07:41 54.09664 10.54425 15009 ft 344 kts 230°
2026-05-01 07:41 54.06729 10.48016 14137 ft 342 kts 230°
2026-05-01 07:42 54.05266 10.44831 13684 ft 340 kts 230°
2026-05-01 07:42 54.03812 10.41673 13253 ft 338 kts 230°
2026-05-01 07:42 54.02368 10.38530 12813 ft 336 kts 230°
2026-05-01 07:42 54.00935 10.35416 12381 ft 333 kts 230°
2026-05-01 07:43 53.99507 10.32321 11936 ft 332 kts 230°
2026-05-01 07:43 53.98076 10.29252 11504 ft 330 kts 227°
2026-05-01 07:43 53.94838 10.23757 10495 ft 329 kts 222°
2026-05-01 07:44 53.91642 10.18498 10121 ft 308 kts 222°
2026-05-01 07:44 53.88651 10.13568 9762 ft 294 kts 221°
2026-05-01 07:45 53.87188 10.11162 9605 ft 293 kts 221°
2026-05-01 07:45 53.85727 10.08765 9420 ft 292 kts 221°
2026-05-01 07:45 53.84272 10.06382 9230 ft 290 kts 221°
2026-05-01 07:45 53.82823 10.04011 9044 ft 289 kts 221°
2026-05-01 07:46 53.81375 10.01647 8854 ft 289 kts 221°
2026-05-01 07:46 53.79929 9.99290 8664 ft 289 kts 221°
2026-05-01 07:46 53.77047 9.94592 8276 ft 287 kts 221°
2026-05-01 07:47 53.75618 9.92260 8100 ft 285 kts 221°
2026-05-01 07:47 53.74192 9.89933 7910 ft 284 kts 221°
2026-05-01 07:47 53.72773 9.87619 7728 ft 283 kts 221°
2026-05-01 07:47 53.71355 9.85314 7544 ft 282 kts 221°
2026-05-01 07:48 53.68534 9.80743 7179 ft 280 kts 221°
2026-05-01 07:48 53.67130 9.78471 6992 ft 279 kts 221°
2026-05-01 07:48 53.65733 9.76212 6805 ft 278 kts 221°
2026-05-01 07:49 53.64341 9.73962 6617 ft 277 kts 221°
2026-05-01 07:49 53.61575 9.69478 6256 ft 275 kts 221°
2026-05-01 07:49 53.60198 9.67254 6081 ft 274 kts 221°
2026-05-01 07:50 53.58821 9.65039 5899 ft 273 kts 221°
2026-05-01 07:50 53.56077 9.60636 5538 ft 272 kts 221°
2026-05-01 07:50 53.54715 9.58448 5360 ft 271 kts 221°
2026-05-01 07:51 53.53355 9.56267 5180 ft 269 kts 221°
2026-05-01 07:51 53.51922 9.54278 4992 ft 266 kts 207°
2026-05-01 07:51 53.50190 9.53378 4824 ft 260 kts 182°
2026-05-01 07:52 53.46929 9.55331 4441 ft 249 kts 139°
2026-05-01 07:52 53.45653 9.57183 4325 ft 237 kts 135°
2026-05-01 07:52 53.44847 9.59478 4211 ft 225 kts 103°
2026-05-01 07:53 53.45726 9.64092 4018 ft 214 kts 51°
2026-05-01 07:53 53.46686 9.65989 4011 ft 214 kts 51°
2026-05-01 07:53 53.47647 9.67894 4010 ft 214 kts 52°
2026-05-01 07:53 53.48590 9.69777 4007 ft 211 kts 52°
2026-05-01 07:54 53.50439 9.73474 3608 ft 206 kts 52°
2026-05-01 07:55 53.53148 9.78902 2790 ft 198 kts 52°
2026-05-01 07:55 53.54891 9.82401 2265 ft 190 kts 52°
2026-05-01 07:56 53.57234 9.87112 1550 ft 166 kts 52°
2026-05-01 07:56 53.58700 9.90066 1106 ft 164 kts 52°
2026-05-01 07:57 53.59433 9.91543 872 ft 164 kts 52°
2026-05-01 07:57 53.60639 9.93976 502 ft 161 kts 51°
2026-05-01 07:58 53.62062 9.96844 86 ft 158 kts 52°
2026-05-01 07:58 53.63338 9.99432 47 ft 73 kts 50°
2026-05-01 07:59 53.63573 9.99970 52 ft 13 kts 104°
2026-05-01 07:59 53.63447 10.00157 48 ft 10 kts 145°
2026-05-01 08:00 53.63329 10.00314 47 ft 1 kts 87°
2026-05-01 08:01 53.63331 10.00360 48 ft 1 kts 86°
2026-05-01 08:01 53.63331 10.00366 48 ft 0 kts 86°